彩虹-1M 2星 (RADUGA-1M 2)

导读 | 星芒AI

RADUGA-1M 2 是一颗由俄罗斯研制的军用电子侦察卫星,主要用于收集和分析地面上的无线电通信和雷达信号。该卫星属于“彩虹”(Raduga)系列,具备高灵敏度和广泛频段覆盖能力,可支持战略情报收集和战场监视任务。它通常与其他侦察卫星协同工作,增强俄罗斯在太空领域的侦察能力。RADUGA-1M 2 于近年发射,是俄罗斯加强其空间监视与电子战能力的重要组成部分。

基本信息
目录编号:
36358
目录名称:
RADUGA 1M-2
国际标识:
2010-002A
轨道中心:
EARTH
卫星名称:
彩虹-1M 2星
卫星全名:
彩虹-1M 2星 (RADUGA-1M 2)
卫星状态:
在轨 (已飞行5801 天)
发射日期:
2010-01-28 UTC
国别 :
俄罗斯(独联体) (CIS)
星等 :
--
轨道信息
数据来源 国际轨道数据 AOE轨道数据
星历时间 2025-12-15T11:33:27+0800
21小时前
查看轨道信息
2025-12-16T01:00:00+0800
8小时前
查看轨道信息
半长轴 42535.097km 42535.269km
偏心率 0.000783 0.0007711
轨道倾角 3.142° 3.143°
近地点辐角 227.656° 227.782°
升交点赤经 81.184° 81.178°
平近点角 281.818° 121.250°
近地点 36123.657km 36124.335km
远地点 36190.267km 36189.933km
周期 1455.060分钟 1455.069分钟
每日圈数 0.98965 0.989644
详细信息
平衡模式:
三轴稳定
覆盖范围:
全球
运营商:
俄罗斯国家航天集团
运营商所在国:
俄罗斯
制造商(研发单位):
列舍特涅夫卫星信息系统
制造商所在国:
俄罗斯
使用方式:
暂无
卫星简介
彩虹卫星(Raduga, Gran)是苏联用于军事和通信目的的一系列地球静止通信卫星。彩虹卫星旨在支持军事通信、Orbita地面电视网络,并在整个东半球(极地地区除外)提供电话和电报通信。该卫星仍在工作。
2D轨道图
3D轨道图
轨道高度分析图
轨道倾角分析图
轨道综合分析图
查看轨道综合分析图